SCP
0 0 0 0 0 0 0 0 0 0 0 0 0 0 0 0 0 0 0 0 0 0 0 0 0 0 0 0 0 0 0 0 0 0 0 0 0 0 0 0 0 0 0
0 0 0 0 0 0 0 0 0 0 0 0 0 0 0 0 0 0 0 0 0 0 0 0 0 0 0 0 0 0 0 0 0 0 0 0 0 0 0 0 0 0 0
0 0 0 0 0 0 0 0 0 0 0 0 0 0 0 0 0 0 0 0 0 0 0 0 0 0 0 0 0 0 0 0 0 0 0 0 0 0 0 0 0 0 0
0 0 0 0 0 0 0 0 0 0 0 0 0 0 0 0 0 0 0 0 0 0 0 0 0 0 0 0 0 0 0 0 0 0 0 0 0 0 0 0 0 0 0
0 0 0 0 0 0 0 0 0 0 0 0 0 0 0 0 0 0 0 0 0 0 0 0 0 0 0 0 0 0 0 0 0 0 0 0 0 0 0 0 0 0 0
-0 -0 -0 0 0 0 0 0 0 0 0 0 0 0 0 0 0 0 0 0 0 0 0 0 0 0 0 0 0 0 0 0 0 0 0 0 0 0 0 0 0 0 0
-0 -0 -0 -0 0 0 0 0 0 0 0 0 0 0 0 0 0 0 0 0 0 0 0 0 0 0 0 0 0 0 0 0 0 0 0 0 0 0 0 0 0 0 0
-0 -0 -0 -0 -0 -0 0 0 0 0 0 0 0 0 0 0 0 0 0 0 0 0 0 0 0 0 0 0 0 0 0 0 0 0 0 0 0 0 0 0 0 0 0
-0 0 0 0 0 0 0 0 0 0 0 0 0 0 0 0 0 0 0 0 0 0 0 0 0 0 0 0 0 0 0 0 0 0 0 0 0 0 0 0 0 0 0
0 0 0 0 0 0 0 0 0 0 0 0 0 0 0 0 0 0 0 0 0 0 0 0 0 0 0 0 0 0 0 0 0 0 0 0 0 0 0 0 0 0 0
0 0 0 0 0 0 0 0 0 0 0 0 0 0 0 0 0 0 0 0 0 0 0 0 0 0 0 0 0 0 0 0 0 0 0 0 0 0 0 0 0 0 0
0 0 0 0 0 0 0 0 0 0 0 0 0 0 0 0 0 0 0 0 0 0 0 0 0 0 0 0 0 0 0 0 0 0 0 0 0 0 0 0 0 0 0
0 0 0 0 0 0 0 0 0 0 0 0 0 0 0 0 0 0 0 0 0 0 0 0 0 0 0 0 0 0 0 0 0 0 0 0 0 0 0 0 0 0 0
0 0 0 0 0 0 0 0 0 0 0 0 0 0 0 0 0 0 0 0 0 0 0 0 0 0 0 0 0 0 0 0 0 0 0 0 0 0 0 0 0 0 0
0 0 0 0 0 0 0 0 0 0 0 0 0 0 0 0 0 0 0 0 0 0 0 0 0 0 0 0 0 0 0 0 0 0 0 0 0 0 0 0 0 0 0
0 0 0 0 0 0 0 0 -0 0 0 0 0 0 0 0 0 0 0 0 0 0 0 0 0 0 0 0 0 0 0 0 0 0 0 0 0 0 0 0 0 0 0
0 0 0 0 0 0 0 0 0 0 0 0 0 0 0 0 0 0 0 0 0 0 0 0 0 0 0 0 0 0 0 0 0 0 0 0 0 0 0 0 0 0 0
0 0 0 0 0 0 0 0 0 0 0 0 0 0 0 0 0 0 0 0 0 0 0 0 0 0 0 0 0 0 0 0 0 0 0 0 0 0 0 0 0 0 0
0 -0 -0 0 0 0 0 0 0 0 0 0 0 0 0 0 0 -0 0 0 0 0 0 0 0 0 0 0 0 0 0 0 0 0 0 0 0 0 0 0 0 0 0
0 0 0 0 0 0 0 0 0 0 0 0 0 0 0 0 0 0 0 0 0 0 0 0 0 0 0 0 0 0 0 0 0 0 0 0 0 0 0 0 0 0 0
-0 -0 0 0 0 0 0 0 0 0 0 0 0 0 0 0 0 0 0 0 0 0 0 0 0 0 0 0 0 0 0 0 0 0 0 0 0 0 0 0 0 0 0
0 -0 0 0 0 0 0 0 0 0 0 0 0 0 0 0 0 0 0 0 0 0 0 0 0 0 0 0 0 0 0 0 0 0 0 0 0 0 0 0 0 0 0
-0 0 0 0 0 0 0 0 -0 -0 0 0 0 0 0 0 0 0 0 0 0 0 0 0 0 0 0 0 0 0 0 0 0 0 0 0 0 0 0 0 0 0 0
0 -0 -0 0 -0 0 -0 -0 -0 0 0 0 0 0 -0 0 0 0 0 0 0 0 0 0 0 0 0 0 0 0 0 0 0 0 0 0 0 0 0 0 0 -0 -0
-0 -0 0 -0 -0 -0 -0 -0 0 0 0 0 -0 -0 0 0 0 0 0 0 0 0 0 0 0 0 0 0 0 0 0 0 0 0 0 0 0 0 0 -0 -0 -0 -0
-0 -0 -0 -0 -0 -0 0 0 0 0 -0 0 -0 -0 -0 -0 -0 0 0 0 0 0 0 0 0 0 0 0 0 0 0 0 0 0 0 0 0 -0 -0 -0 -0 -0 -0
Wind_Speed_500mb
86 90 99 104 106 109 115 118 119 118 118 118 117 111 105 102 100 99 98 94 90 84 80 78 73 67 63 62 58 58 60 61 69 72 69 67 69 71 73 75 78 82 83
74 80 85 93 99 103 107 110 115 121 121 123 121 123 118 113 108 106 106 103 99 94 90 85 80 73 71 67 64 64 64 63 67 74 72 71 74 75 78 79 79 80 78
57 65 70 75 85 95 100 100 102 109 116 121 122 125 129 126 121 117 112 108 105 101 96 92 84 79 77 73 69 67 67 66 67 71 75 75 78 78 78 78 79 78 76
49 54 62 68 73 78 86 96 102 103 108 112 115 121 128 130 131 128 121 116 112 109 103 97 89 87 82 77 73 71 69 68 70 73 74 76 76 73 72 75 74 78 82
55 58 63 67 67 71 78 83 90 97 103 109 112 115 119 125 130 131 132 126 123 118 112 103 95 91 84 80 75 75 72 70 70 71 73 70 71 68 69 73 80 86 84
62 65 67 67 62 65 70 74 79 89 95 103 111 115 119 124 130 130 126 129 129 128 122 110 100 94 86 83 79 74 75 71 69 65 63 62 66 65 68 74 77 76 76
69 78 75 69 71 67 74 70 75 82 84 93 103 110 118 125 127 127 126 125 126 130 125 117 103 99 90 84 79 75 74 70 65 56 56 59 63 59 62 68 68 78 87
87 79 75 71 72 75 74 80 82 82 83 81 84 98 110 120 124 126 124 123 122 126 123 118 108 101 92 86 78 73 67 62 59 57 57 56 54 51 50 60 72 79 81
87 85 86 83 81 80 76 76 80 75 77 83 82 83 90 102 114 119 114 118 118 120 119 114 108 100 87 81 75 68 62 59 57 56 53 50 50 46 49 60 63 67 80
93 88 82 82 79 79 82 80 76 79 80 81 83 87 90 93 100 106 108 111 107 110 114 112 102 89 79 74 69 63 56 55 54 55 56 49 46 46 45 49 54 59 64
100 89 85 83 84 77 77 82 82 83 80 81 85 89 97 101 97 100 91 100 100 104 106 107 92 84 74 65 64 54 50 50 51 53 51 45 44 43 42 45 46 51 60
99 93 101 97 95 85 76 77 81 84 83 77 79 82 91 96 95 90 89 91 94 103 98 99 86 70 60 57 51 48 46 49 50 46 46 44 43 42 42 46 48 52 55
103 105 108 104 99 91 86 84 83 83 85 84 78 79 87 91 87 81 81 87 93 92 97 85 69 59 52 46 47 43 46 46 44 44 42 40 41 42 44 48 51 57 62
104 106 111 110 108 106 94 88 84 85 84 83 82 80 83 86 78 71 81 76 74 83 72 66 61 56 47 37 35 42 41 40 41 38 38 38 40 43 47 50 58 62 69
103 107 110 112 106 109 108 98 87 80 74 76 82 78 82 82 76 80 94 84 77 73 72 63 58 45 34 35 37 36 36 36 34 34 36 38 41 45 49 53 58 63 68
98 106 108 102 106 107 107 104 91 79 69 69 69 74 72 71 63 82 90 80 59 67 63 53 38 32 31 31 29 30 31 30 30 32 35 38 42 47 53 57 59 63 69
99 103 107 102 99 100 104 97 94 85 66 59 51 65 58 54 57 83 81 62 58 52 40 36 28 27 27 25 25 26 26 27 29 31 36 39 42 47 53 59 61 64 70
103 102 99 101 94 101 95 90 83 66 49 36 38 46 36 39 67 68 60 60 49 36 27 23 26 23 21 21 21 21 23 26 29 32 37 39 41 47 55 59 62 67 74
100 98 95 96 94 99 88 78 57 45 46 44 28 24 46 61 62 68 65 40 26 23 26 23 18 16 16 16 18 21 24 25 28 33 36 39 42 49 55 59 65 69 74
99 93 91 96 94 82 63 46 44 50 53 61 68 73 74 76 64 49 36 28 27 22 18 15 12 11 12 15 18 21 24 27 29 33 37 41 45 49 56 62 66 72 75
69 81 100 86 70 47 39 43 57 71 75 80 80 73 62 47 39 35 34 30 22 17 13 10 7 8 11 15 19 23 27 30 31 35 41 44 47 53 56 63 67 71 78
97 101 75 46 35 32 40 52 64 69 66 66 62 55 40 34 35 32 28 23 18 13 8 5 5 9 13 17 23 27 31 33 35 39 43 47 51 55 60 65 68 75 83
85 61 36 28 25 31 41 49 52 50 60 61 53 46 39 34 31 28 23 17 11 6 1 4 8 13 19 23 27 32 35 36 39 42 47 51 55 58 61 66 72 80 86
37 28 21 23 28 34 38 44 48 57 56 47 45 41 36 32 27 22 17 11 6 2 6 11 14 18 22 25 28 32 36 38 41 44 47 54 59 57 61 69 76 82 85
17 15 21 27 32 37 46 57 61 55 51 47 42 37 33 27 22 17 12 7 4 8 12 16 20 24 27 29 31 33 35 39 42 44 50 55 55 58 65 73 77 81 90
18 24 29 35 44 57 65 63 58 53 48 43 38 33 27 22 17 12 9 8 10 13 16 21 25 28 31 33 34 37 39 39 42 44 44 49 58 67 75 81 87 94 99
Wind_Direction_500mb
284 286 282 277 274 271 267 266 264 263 261 259 259 257 253 249 246 244 244 244 243 244 244 246 247 249 250 253 254 257 260 264 266 280 284 291 293 297 300 303 305 308 309
297 294 291 288 281 277 275 274 271 267 265 263 261 259 257 254 250 246 244 244 243 242 244 244 246 249 249 252 254 257 262 266 268 275 284 287 291 296 300 303 304 310 313
304 300 298 297 290 284 282 280 277 273 270 267 264 260 260 257 254 250 245 244 245 244 245 245 246 247 249 250 254 257 261 264 267 271 278 284 289 295 300 304 312 312 312
324 314 307 303 299 296 293 286 281 278 274 271 267 265 262 260 258 255 251 247 245 245 244 244 244 245 248 250 253 255 258 260 265 270 275 282 289 297 304 310 309 307 306
323 322 320 316 308 301 296 291 286 280 277 274 270 265 259 256 256 256 254 251 249 247 245 243 243 243 246 249 251 254 255 258 263 268 276 282 291 301 306 306 303 307 308
327 322 310 305 305 309 304 298 292 286 282 276 272 268 261 256 255 254 255 254 252 249 246 243 242 242 243 245 248 252 256 258 262 266 274 285 292 297 300 303 306 308 306
324 319 316 302 302 303 302 298 294 290 287 280 277 272 267 264 260 255 254 251 253 252 248 245 241 241 240 243 245 249 253 260 266 269 274 281 287 294 300 306 302 298 299
316 313 307 300 296 298 290 284 285 290 287 283 286 278 271 269 264 260 254 251 251 253 251 246 242 240 238 239 241 246 252 258 262 267 273 280 289 299 297 288 290 296 299
310 305 302 300 296 297 293 291 280 276 277 276 274 277 274 271 264 259 250 248 248 247 250 245 240 238 236 236 240 246 252 258 264 272 274 280 286 286 289 293 297 302 305
296 295 293 296 298 299 297 292 286 284 282 276 272 271 269 268 264 259 251 247 240 238 243 240 235 233 230 234 241 245 251 261 269 273 280 288 289 290 289 290 296 300 307
295 294 298 300 304 302 300 297 295 291 286 280 274 271 268 267 262 256 258 245 232 234 237 234 225 223 224 232 242 247 255 264 267 279 288 289 291 289 288 289 295 302 305
301 300 306 307 306 306 303 299 297 292 287 279 277 273 268 264 260 255 254 238 230 230 230 230 221 219 223 229 235 250 260 259 272 279 282 288 288 287 291 298 303 301 303
306 306 306 306 305 308 309 305 298 291 285 278 270 267 270 266 258 249 241 220 220 222 233 229 212 215 221 225 240 253 260 266 271 276 281 284 285 292 299 305 307 308 306
309 307 307 309 307 307 310 308 302 292 284 278 270 266 267 263 251 232 209 204 206 224 216 201 203 208 220 232 237 255 261 266 271 277 281 283 289 297 304 311 312 313 310
303 304 305 306 306 307 307 305 299 294 283 276 275 271 268 259 241 218 207 201 211 207 196 196 201 207 212 229 241 247 255 264 270 275 282 288 294 300 306 312 313 315 313
298 300 299 297 300 301 302 300 298 293 280 273 266 265 267 257 229 211 203 203 201 195 193 193 196 202 225 230 238 247 257 263 270 279 284 290 299 305 308 311 313 315 315
297 296 296 294 291 293 296 292 292 292 276 267 253 250 255 250 217 203 197 198 193 191 189 185 201 212 217 227 238 247 257 266 274 280 287 296 302 305 307 310 314 316 318
297 295 293 291 284 289 290 287 282 276 261 236 221 231 247 209 176 183 181 167 179 175 182 191 197 206 219 232 242 253 264 273 281 287 295 299 302 305 307 311 317 318 319
296 294 293 289 282 291 289 276 265 242 207 196 183 163 161 157 150 158 168 174 166 168 176 184 194 207 222 238 255 267 276 285 292 295 297 300 305 307 311 315 316 317 317
296 290 286 293 289 287 268 238 216 190 163 149 148 145 148 155 160 159 157 149 158 165 172 180 194 214 239 256 269 281 289 296 300 300 302 304 308 311 314 314 315 316 316
301 311 312 304 278 254 231 208 180 166 160 156 153 155 158 157 145 139 144 147 151 159 168 174 197 238 264 277 288 295 299 304 308 307 305 310 314 313 313 313 314 315 315
309 304 298 267 247 219 200 186 176 170 161 152 151 159 156 145 138 135 136 141 147 151 156 191 247 276 292 299 300 302 306 310 310 308 311 313 312 312 314 314 314 314 315
296 283 259 233 211 194 186 178 172 163 157 159 156 151 147 138 130 130 131 133 134 135 183 289 302 301 301 305 305 307 310 312 312 313 314 312 311 314 314 313 314 315 316
268 247 221 188 176 171 166 161 160 157 153 146 143 139 134 129 125 122 117 113 97 19 326 314 308 306 303 303 307 307 307 310 312 313 309 309 311 313 312 313 315 316 315
218 188 172 161 155 153 151 147 145 141 141 137 134 128 122 118 113 108 97 79 20 342 332 324 318 314 315 316 312 311 311 313 311 310 310 308 307 311 314 315 316 316 317
155 151 143 141 143 141 138 136 135 135 130 127 122 116 109 104 95 86 65 31 2 347 335 327 323 321 319 318 317 317 315 312 310 311 310 310 313 319 321 319 319 316 313
Wind_Speed_850mb
86 90 99 104 106 109 115 118 119 118 118 118 117 111 105 102 100 99 98 94 90 84 80 78 73 67 63 62 58 58 60 61 69 72 69 67 69 71 73 75 78 82 83
74 80 85 93 99 103 107 110 115 121 121 123 121 123 118 113 108 106 106 103 99 94 90 85 80 73 71 67 64 64 64 63 67 74 72 71 74 75 78 79 79 80 78
57 65 70 75 85 95 100 100 102 109 116 121 122 125 129 126 121 117 112 108 105 101 96 92 84 79 77 73 69 67 67 66 67 71 75 75 78 78 78 78 79 78 76
49 54 62 68 73 78 86 96 102 103 108 112 115 121 128 130 131 128 121 116 112 109 103 97 89 87 82 77 73 71 69 68 70 73 74 76 76 73 72 75 74 78 82
55 58 63 67 67 71 78 83 90 97 103 109 112 115 119 125 130 131 132 126 123 118 112 103 95 91 84 80 75 75 72 70 70 71 73 70 71 68 69 73 80 86 84
62 65 67 67 62 65 70 74 79 89 95 103 111 115 119 124 130 130 126 129 129 128 122 110 100 94 86 83 79 74 75 71 69 65 63 62 66 65 68 74 77 76 76
69 78 75 69 71 67 74 70 75 82 84 93 103 110 118 125 127 127 126 125 126 130 125 117 103 99 90 84 79 75 74 70 65 56 56 59 63 59 62 68 68 78 87
87 79 75 71 72 75 74 80 82 82 83 81 84 98 110 120 124 126 124 123 122 126 123 118 108 101 92 86 78 73 67 62 59 57 57 56 54 51 50 60 72 79 81
87 85 86 83 81 80 76 76 80 75 77 83 82 83 90 102 114 119 114 118 118 120 119 114 108 100 87 81 75 68 62 59 57 56 53 50 50 46 49 60 63 67 80
93 88 82 82 79 79 82 80 76 79 80 81 83 87 90 93 100 106 108 111 107 110 114 112 102 89 79 74 69 63 56 55 54 55 56 49 46 46 45 49 54 59 64
100 89 85 83 84 77 77 82 82 83 80 81 85 89 97 101 97 100 91 100 100 104 106 107 92 84 74 65 64 54 50 50 51 53 51 45 44 43 42 45 46 51 60
99 93 101 97 95 85 76 77 81 84 83 77 79 82 91 96 95 90 89 91 94 103 98 99 86 70 60 57 51 48 46 49 50 46 46 44 43 42 42 46 48 52 55
103 105 108 104 99 91 86 84 83 83 85 84 78 79 87 91 87 81 81 87 93 92 97 85 69 59 52 46 47 43 46 46 44 44 42 40 41 42 44 48 51 57 62
104 106 111 110 108 106 94 88 84 85 84 83 82 80 83 86 78 71 81 76 74 83 72 66 61 56 47 37 35 42 41 40 41 38 38 38 40 43 47 50 58 62 69
103 107 110 112 106 109 108 98 87 80 74 76 82 78 82 82 76 80 94 84 77 73 72 63 58 45 34 35 37 36 36 36 34 34 36 38 41 45 49 53 58 63 68
98 106 108 102 106 107 107 104 91 79 69 69 69 74 72 71 63 82 90 80 59 67 63 53 38 32 31 31 29 30 31 30 30 32 35 38 42 47 53 57 59 63 69
99 103 107 102 99 100 104 97 94 85 66 59 51 65 58 54 57 83 81 62 58 52 40 36 28 27 27 25 25 26 26 27 29 31 36 39 42 47 53 59 61 64 70
103 102 99 101 94 101 95 90 83 66 49 36 38 46 36 39 67 68 60 60 49 36 27 23 26 23 21 21 21 21 23 26 29 32 37 39 41 47 55 59 62 67 74
100 98 95 96 94 99 88 78 57 45 46 44 28 24 46 61 62 68 65 40 26 23 26 23 18 16 16 16 18 21 24 25 28 33 36 39 42 49 55 59 65 69 74
99 93 91 96 94 82 63 46 44 50 53 61 68 73 74 76 64 49 36 28 27 22 18 15 12 11 12 15 18 21 24 27 29 33 37 41 45 49 56 62 66 72 75
69 81 100 86 70 47 39 43 57 71 75 80 80 73 62 47 39 35 34 30 22 17 13 10 7 8 11 15 19 23 27 30 31 35 41 44 47 53 56 63 67 71 78
97 101 75 46 35 32 40 52 64 69 66 66 62 55 40 34 35 32 28 23 18 13 8 5 5 9 13 17 23 27 31 33 35 39 43 47 51 55 60 65 68 75 83
85 61 36 28 25 31 41 49 52 50 60 61 53 46 39 34 31 28 23 17 11 6 1 4 8 13 19 23 27 32 35 36 39 42 47 51 55 58 61 66 72 80 86
37 28 21 23 28 34 38 44 48 57 56 47 45 41 36 32 27 22 17 11 6 2 6 11 14 18 22 25 28 32 36 38 41 44 47 54 59 57 61 69 76 82 85
17 15 21 27 32 37 46 57 61 55 51 47 42 37 33 27 22 17 12 7 4 8 12 16 20 24 27 29 31 33 35 39 42 44 50 55 55 58 65 73 77 81 90
18 24 29 35 44 57 65 63 58 53 48 43 38 33 27 22 17 12 9 8 10 13 16 21 25 28 31 33 34 37 39 39 42 44 44 49 58 67 75 81 87 94 99
Wind_Direction_850mb
284 286 282 277 274 271 267 266 264 263 261 259 259 257 253 249 246 244 244 244 243 244 244 246 247 249 250 253 254 257 260 264 266 280 284 291 293 297 300 303 305 308 309
297 294 291 288 281 277 275 274 271 267 265 263 261 259 257 254 250 246 244 244 243 242 244 244 246 249 249 252 254 257 262 266 268 275 284 287 291 296 300 303 304 310 313
304 300 298 297 290 284 282 280 277 273 270 267 264 260 260 257 254 250 245 244 245 244 245 245 246 247 249 250 254 257 261 264 267 271 278 284 289 295 300 304 312 312 312
324 314 307 303 299 296 293 286 281 278 274 271 267 265 262 260 258 255 251 247 245 245 244 244 244 245 248 250 253 255 258 260 265 270 275 282 289 297 304 310 309 307 306
323 322 320 316 308 301 296 291 286 280 277 274 270 265 259 256 256 256 254 251 249 247 245 243 243 243 246 249 251 254 255 258 263 268 276 282 291 301 306 306 303 307 308
327 322 310 305 305 309 304 298 292 286 282 276 272 268 261 256 255 254 255 254 252 249 246 243 242 242 243 245 248 252 256 258 262 266 274 285 292 297 300 303 306 308 306
324 319 316 302 302 303 302 298 294 290 287 280 277 272 267 264 260 255 254 251 253 252 248 245 241 241 240 243 245 249 253 260 266 269 274 281 287 294 300 306 302 298 299
316 313 307 300 296 298 290 284 285 290 287 283 286 278 271 269 264 260 254 251 251 253 251 246 242 240 238 239 241 246 252 258 262 267 273 280 289 299 297 288 290 296 299
310 305 302 300 296 297 293 291 280 276 277 276 274 277 274 271 264 259 250 248 248 247 250 245 240 238 236 236 240 246 252 258 264 272 274 280 286 286 289 293 297 302 305
296 295 293 296 298 299 297 292 286 284 282 276 272 271 269 268 264 259 251 247 240 238 243 240 235 233 230 234 241 245 251 261 269 273 280 288 289 290 289 290 296 300 307
295 294 298 300 304 302 300 297 295 291 286 280 274 271 268 267 262 256 258 245 232 234 237 234 225 223 224 232 242 247 255 264 267 279 288 289 291 289 288 289 295 302 305
301 300 306 307 306 306 303 299 297 292 287 279 277 273 268 264 260 255 254 238 230 230 230 230 221 219 223 229 235 250 260 259 272 279 282 288 288 287 291 298 303 301 303
306 306 306 306 305 308 309 305 298 291 285 278 270 267 270 266 258 249 241 220 220 222 233 229 212 215 221 225 240 253 260 266 271 276 281 284 285 292 299 305 307 308 306
309 307 307 309 307 307 310 308 302 292 284 278 270 266 267 263 251 232 209 204 206 224 216 201 203 208 220 232 237 255 261 266 271 277 281 283 289 297 304 311 312 313 310
303 304 305 306 306 307 307 305 299 294 283 276 275 271 268 259 241 218 207 201 211 207 196 196 201 207 212 229 241 247 255 264 270 275 282 288 294 300 306 312 313 315 313
298 300 299 297 300 301 302 300 298 293 280 273 266 265 267 257 229 211 203 203 201 195 193 193 196 202 225 230 238 247 257 263 270 279 284 290 299 305 308 311 313 315 315
297 296 296 294 291 293 296 292 292 292 276 267 253 250 255 250 217 203 197 198 193 191 189 185 201 212 217 227 238 247 257 266 274 280 287 296 302 305 307 310 314 316 318
297 295 293 291 284 289 290 287 282 276 261 236 221 231 247 209 176 183 181 167 179 175 182 191 197 206 219 232 242 253 264 273 281 287 295 299 302 305 307 311 317 318 319
296 294 293 289 282 291 289 276 265 242 207 196 183 163 161 157 150 158 168 174 166 168 176 184 194 207 222 238 255 267 276 285 292 295 297 300 305 307 311 315 316 317 317
296 290 286 293 289 287 268 238 216 190 163 149 148 145 148 155 160 159 157 149 158 165 172 180 194 214 239 256 269 281 289 296 300 300 302 304 308 311 314 314 315 316 316
301 311 312 304 278 254 231 208 180 166 160 156 153 155 158 157 145 139 144 147 151 159 168 174 197 238 264 277 288 295 299 304 308 307 305 310 314 313 313 313 314 315 315
309 304 298 267 247 219 200 186 176 170 161 152 151 159 156 145 138 135 136 141 147 151 156 191 247 276 292 299 300 302 306 310 310 308 311 313 312 312 314 314 314 314 315
296 283 259 233 211 194 186 178 172 163 157 159 156 151 147 138 130 130 131 133 134 135 183 289 302 301 301 305 305 307 310 312 312 313 314 312 311 314 314 313 314 315 316
268 247 221 188 176 171 166 161 160 157 153 146 143 139 134 129 125 122 117 113 97 19 326 314 308 306 303 303 307 307 307 310 312 313 309 309 311 313 312 313 315 316 315
218 188 172 161 155 153 151 147 145 141 141 137 134 128 122 118 113 108 97 79 20 342 332 324 318 314 315 316 312 311 311 313 311 310 310 308 307 311 314 315 316 316 317
155 151 143 141 143 141 138 136 135 135 130 127 122 116 109 104 95 86 65 31 2 347 335 327 323 321 319 318 317 317 315 312 310 311 310 310 313 319 321 319 319 316 313